Weather History for New Castle, PA

Change the Weather History Date:

Thursday, May 9, 2013

  Actual Average Record
Temperature  
Mean Temperature 64 °F -  
Max Temperature 77 °F 68 °F 90 °F (1963)
Min Temperature 52 °F 42 °F 25 °F (1976)
Growing Degree Days 14 (Base 50)    
Moisture  
Dew Point 50 °F    
Average Humidity 66    
Maximum Humidity 100    
Minimum Humidity 32    
Precipitation  
Precipitation 0.00 in - - ()
Sea Level Pressure  
Sea Level Pressure 30.01 in    
Wind  
Wind Speed 2 mph (NW)    
Max Wind Speed 9 mph    
Max Gust Speed 16 mph    
Visibility 10 miles    
Events      
Averages and records for this station are not official NWS values.
T = Trace of Precipitation, MM = Missing Value Source: NWS Daily Summary

Daily Weather History Graph

Daily Weather History Graph

Search for Another Location

Airport:

Trip Planner

Search our weather history database for the weather conditions in past years. The results will help you decide how hot, cold, wet, or windy it might be!

Date:

Astronomy

May. 09, 2013 Rise Set
Actual Time 6:09 AM EDT 8:27 PM EDT
Civil Twilight 5:39 AM EDT 8:57 PM EDT
Nautical Twilight 5:01 AM EDT 9:35 PM EDT
Astronomical Twilight 4:19 AM EDT 10:17 PM EDT
Moon 5:53 AM EDT (5/9) 8:20 PM EDT (5/9)
Length of Visible Light 15h 18m
Length of Day
14h 17m
Waning Crescent, 0% of the Moon is Illuminated
May 9
Waning Crescent
May 9
New
May 18
First Quarter
May 25
Full
May 31
Last Quarter

Hourly Weather History & Observations

Time (EDT) Temp. Dew Point Humidity Pressure Visibility Wind Dir Wind Speed Gust Speed Precip Events Conditions
12:56 AM 54.9 °F 54.0 °F 97% 30.00 in 10.0 mi Calm Calm - N/A   Partly Cloudy
2:56 AM 52.9 °F 52.0 °F 97% 29.98 in 10.0 mi Calm Calm - N/A   Scattered Clouds
3:56 AM 52.9 °F 52.0 °F 97% 29.98 in 10.0 mi Calm Calm - N/A   Mostly Cloudy
4:56 AM 52.9 °F 52.0 °F 97% 29.98 in 10.0 mi Calm Calm - N/A   Partly Cloudy
6:56 AM 52.9 °F 52.9 °F 100% 30.01 in 10.0 mi Calm Calm - N/A   Scattered Clouds
7:56 AM 55.4 °F 55.4 °F 100% 29.99 in 10.0 mi Calm Calm - N/A   Overcast
8:56 AM 57.9 °F 54.9 °F 90% 30.05 in 10.0 mi Calm Calm - N/A   Mostly Cloudy
9:56 AM 59.0 °F 55.9 °F 90% 30.05 in 10.0 mi Calm Calm - N/A   Mostly Cloudy
10:56 AM 62.6 °F 55.4 °F 77% 30.01 in 10.0 mi Calm Calm - N/A   Mostly Cloudy
11:56 AM 66.9 °F 54.0 °F 63% 30.04 in 10.0 mi Variable 6.9 mph - N/A   Clear
12:56 PM 70.9 °F 52.9 °F 53% 30.04 in 10.0 mi NW 5.8 mph - N/A   Partly Cloudy
1:56 PM 73.4 °F 53.6 °F 50% 29.99 in 10.0 mi North 8.1 mph - N/A   Mostly Cloudy
2:56 PM 73.9 °F 50.9 °F 44% 30.02 in 10.0 mi NNW 8.1 mph 16.1 mph N/A   Scattered Clouds
3:56 PM 73.9 °F 48.9 °F 41% 30.01 in 10.0 mi NW 8.1 mph - N/A   Scattered Clouds
4:56 PM 73.9 °F 50.0 °F 43% 30.00 in 10.0 mi NW 9.2 mph - N/A   Partly Cloudy
5:56 PM 77.0 °F 45.0 °F 32% 29.99 in 10.0 mi WNW 8.1 mph - N/A   Clear
6:56 PM 73.9 °F 43.9 °F 34% 30.00 in 10.0 mi NNW 8.1 mph - N/A   Clear
7:56 PM 71.6 °F 42.8 °F 35% 29.98 in 10.0 mi Calm Calm - N/A   Clear
8:56 PM 66.9 °F 43.0 °F 42% 30.04 in 10.0 mi Calm Calm - N/A   Scattered Clouds
9:56 PM 61.9 °F 43.0 °F 50% 30.04 in 10.0 mi Calm Calm - N/A   Clear
10:56 PM 60.8 °F 44.6 °F 55% 30.00 in 10.0 mi Calm Calm - N/A   Clear
11:56 PM 56.8 °F 46.9 °F 69% 30.04 in 10.0 mi Calm Calm - N/A   Scattered Clouds